Date,TemperatureHighF,TemperatureAvgF,TemperatureLowF,DewpointHighF,DewpointAvgF,DewpointLowF,HumidityHigh,HumidityAvg,HumidityLow,PressureMaxIn,PressureMinIn,WindSpeedMaxMPH,WindSpeedAvgMPH,GustSpeedMaxMPH,PrecipitationSumIn
2013-3-1,73.4,53.9,36.9,23.8,18.4,7.6,46,26,14,30.54,30.21,13,4,13,0.00
2013-3-2,77.7,57.7,42.4,30.8,26.3,19.9,51,33,14,30.49,29.99,11,3,11,0.00
2013-3-3,63.5,53.6,42.4,33.9,27.4,20.7,59,38,21,30.26,29.91,15,4,15,0.00
2013-3-4,68.4,54.1,41.0,33.4,30.1,26.1,66,42,23,30.19,29.90,13,3,13,0.00
2013-3-5,67.8,53.3,41.7,31.1,27.1,20.0,60,39,17,30.29,29.96,14,4,14,0.00
2013-3-6,69.8,53.5,38.3,36.8,28.7,21.6,72,43,16,30.17,29.88,24,4,24,0.00
2013-3-7,68.0,52.9,39.0,34.2,27.9,20.1,67,42,18,30.02,29.85,24,5,24,0.00
2013-3-8,52.3,39.7,32.0,42.3,35.8,29.6,99,88,42,30.02,29.77,21,2,21,1.03
2013-3-9,38.3,34.8,32.2,36.6,33.8,31.8,99,96,89,30.19,29.89,6,1,6,0.40
2013-3-10,62.1,45.1,30.0,40.7,30.0,18.0,99,63,22,30.33,30.09,13,2,13,0.09
2013-3-11,68.5,50.4,33.6,35.2,26.7,22.0,64,43,18,30.37,30.02,10,3,10,0.00
2013-3-12,75.2,57.7,40.8,32.3,27.5,21.5,56,34,15,30.30,30.03,14,4,14,0.00
2013-3-13,79.0,62.5,47.3,34.9,27.9,21.5,47,29,14,30.34,30.07,14,5,14,0.00
2013-3-14,85.6,67.4,52.5,35.1,27.6,22.6,39,24,13,30.33,29.96,14,4,14,0.00
2013-3-15,81.9,63.8,51.3,36.2,29.8,23.8,53,30,13,30.19,29.83,15,4,15,0.00
2013-3-16,78.4,61.3,51.1,38.9,33.4,22.6,57,38,16,30.05,29.71,17,4,17,0.00
2013-3-17,77.0,59.2,45.1,36.8,27.2,12.2,62,35,13,29.99,29.77,21,4,21,0.00
2013-3-18,74.3,57.7,41.9,34.9,22.5,12.2,53,28,13,30.09,29.81,15,3,15,0.00
2013-3-19,76.5,60.4,50.5,35.8,28.6,18.6,51,33,14,30.14,29.90,16,4,16,0.00
2013-3-20,71.2,58.7,48.4,36.0,29.7,24.1,54,34,21,30.20,29.90,19,5,19,0.00
2013-3-21,76.3,59.8,45.5,38.7,32.4,18.3,67,40,13,29.98,29.66,20,4,20,0.00
2013-3-22,72.1,55.8,38.5,35.0,20.7,6.6,43,26,14,29.93,29.65,17,4,17,0.00
2013-3-23,63.5,49.4,32.2,19.6,13.5,5.7,43,24,18,30.07,29.91,20,4,20,0.00
2013-3-24,69.8,53.5,36.5,20.3,13.8,0.3,26,21,14,30.09,29.87,17,4,17,0.00
2013-3-25,73.6,56.8,43.3,24.7,16.9,7.1,37,21,13,30.14,29.88,13,4,13,0.00
2013-3-26,72.7,58.4,43.9,27.4,21.7,18.2,51,26,13,30.11,29.80,21,5,21,0.00
2013-3-27,71.8,60.8,42.8,27.4,22.5,19.1,52,26,14,30.09,29.92,15,6,15,0.00
2013-3-28,74.8,64.4,44.6,30.1,24.0,19.9,47,23,14,30.13,29.91,20,6,20,0.00
2013-3-29,78.3,62.2,49.1,33.1,28.1,19.9,47,30,14,30.22,29.90,14,4,14,0.00
2013-3-30,76.8,60.1,50.9,35.4,29.8,22.8,47,33,16,30.21,29.93,15,3,15,0.00
2013-3-31,79.0,62.2,48.6,37.1,30.9,21.5,54,34,15,30.17,29.83,18,5,18,0.00